Location: Franzen
(48.6167°N, 15.3833°E)
Time: 08:51:46
(UTC+00:00)

SJ-6B - Pass Details

Date: 22 April 2021
Orbit: 510 x 579 km, 97.6° (Epoch: 16 May)

Event Time Altitude Azimuth Distance (km) Brightness Sun altitude
Rises 19:13:05 0° 185° (S) 2,610 6.0 -11.5°
Reaches altitude 10° 19:15:17 10° 194° (SSW) 1,732 5.2 -11.8°
Maximum altitude 19:18:44 36° 263° (W) 830 4.2 -12.3°
Drops below altitude 10° 19:22:16 10° 331° (NNW) 1,765 6.5 -12.7°
Sets 19:24:32 0° 340° (NNW) 2,669 7.3 -13.0°
